Location: Gajan
(43.0218°N, 1.1244°E)
Time: 15:02:29
(UTC+00:00)

SPOT 1/Viking Rocket - Pass Details

Date: 22 April 2021
Orbit: 776 x 794 km, 98.4° (Epoch: 12 May)

Event Time Altitude Azimuth Distance (km) Brightness Sun altitude
Exits shadow 21:14:16 48° 187° (S) 1,038 3.9 -23.6°
Maximum altitude 21:15:44 73° 257° (WSW) 833 3.6 -23.7°
Drops below altitude 10° 21:20:58 10° 343° (NNW) 2,370 6.9 -24.4°
Sets 21:23:19 0° 345° (NNW) 3,302 7.8 -24.7°
